This is the latest recevied weather packets stored in our database for station/object AD8AK. If no packets are shown the sender has not sent any weather packets the latest 10 day(s).
| Time | Temp. | Humidity | Pressure | Rain* | Wind** | Luminosity | Snow |
|---|---|---|---|---|---|---|---|
| 1777757832 | 8.33° C | 45% | 1017 hPa | 0 mm | - | - | - |
| 1777757530 | 8.33° C | 49% | 1017 hPa | 0 mm | - | - | - |
| 1777757228 | 8.89° C | 45% | 1016.9 hPa | 0 mm | - | - | - |
| 1777756926 | 8.33° C | 47% | 1016.9 hPa | 0 mm | - | - | - |
| 1777756622 | 8.89° C | 45% | 1016.9 hPa | 0 mm | - | - | - |
| 1777756319 | 8.33° C | 45% | 1016.8 hPa | 0 mm | - | - | - |
| 1777756016 | 8.33° C | 45% | 1016.8 hPa | 0 mm | - | - | - |
| 1777755713 | 8.33° C | 45% | 1016.9 hPa | 0 mm | - | - | - |
| 1777755410 | 8.89° C | 47% | 1017 hPa | 0 mm | - | - | - |
| 1777755107 | 8.89° C | 48% | 1016.8 hPa | 0 mm | - | - | - |
| 1777754803 | 8.89° C | 48% | 1016.9 hPa | 0 mm | - | - | - |
| 1777754502 | 8.89° C | 47% | 1017 hPa | 0 mm | - | - | - |
| 1777754198 | 8.89° C | 48% | 1016.9 hPa | 0 mm | - | - | - |
| 1777753896 | 8.89° C | 47% | 1016.9 hPa | 0 mm | - | - | - |
| 1777753591 | 8.33° C | 47% | 1017.1 hPa | 0 mm | - | - | - |
| 1777753289 | 8.33° C | 48% | 1017.1 hPa | 0 mm | - | - | - |
| 1777752985 | 8.33° C | 49% | 1017 hPa | 0 mm | - | - | - |
| 1777752676 | 8.33° C | 50% | 1017.2 hPa | 0 mm | - | - | - |
| 1777752372 | 8.33° C | 49% | 1017.2 hPa | 0 mm | - | - | - |
| 1777752070 | 8.33° C | 49% | 1017.3 hPa | 0 mm | - | - | - |
| 1777751768 | 8.89° C | 48% | 1017.4 hPa | 0 mm | - | - | - |
| 1777751463 | 8.89° C | 47% | 1017.3 hPa | 0 mm | - | - | - |
| 1777751160 | 8.89° C | 50% | 1017.4 hPa | 0 mm | - | - | - |
| 1777750856 | 8.33° C | 49% | 1017.3 hPa | 0 mm | - | - | - |
| 1777750553 | 8.33° C | 50% | 1017.4 hPa | 0 mm | - | - | - |
* Rain latest hour (hover to see other rain measurements)
** Current wind speed in m/s (hover to see current wind gust speed)